User: anonymous   Login
Location: Hartman Creek State Park
(44.3257°N, 89.2134°W)
Time: 09:25:01
(UTC-05:00)
Language:

Cosmos 2263 Rocket - Orbit

View from above orbital plane
View from above orbital plane
View from above satellite
View from above satellite

Ground track
Ground track

The orbit data is extracted from the following two-line orbital elements,

1 22803U 93059B   14302.78416206 -.00000234  00000-0 -92972-4 0  4095
2 22803 070.9891 115.2162 0015786 043.1548 317.0809 14.16683194 92115
Epoch (UTC): 29 October 2014 18:49:11
Eccentricity: 0.0015786
inclination: 70.9891°
perigee height: 825 km
apogee height: 848 km
right ascension of ascending node: 115.2162°
argument of perigee: 43.1548°
revolutions per day: 14.16683194
mean anomaly at epoch: 317.0809°
orbit number at epoch: 9211

The dashed part of the orbit path shows where the satellite is in the earth's shadow,  

DLR